Weather History for Perry, FL

Change the Weather History Date:

Saturday, March 8, 2014

  Actual Average (KCTY) Record (KCTY)
Temperature  
Mean Temperature 50 °F 61 °F  
Max Temperature 68 °F 75 °F 84 °F (2012)
Min Temperature 32 °F 47 °F 31 °F (2013)
Degree Days  
Heating Degree Days 15 6  
Month to date heating degree days 50  
Since 1 July heating degree days 1170  
Cooling Degree Days 0 1  
Month to date cooling degree days 8  
Year to date cooling degree days 35  
Moisture  
Dew Point 43 °F    
Average Humidity 81    
Maximum Humidity 100    
Minimum Humidity 40    
Precipitation  
Precipitation 0.00 in 0.14 in 1.79 in (1998)
Month to date precipitation 1.03  
Year to date precipitation 8.34  
Sea Level Pressure  
Sea Level Pressure 30.15 in    
Wind  
Wind Speed 1 mph (WSW)    
Max Wind Speed 9 mph    
Max Gust Speed -    
Visibility 7 miles    
Events Fog    
T = Trace of Precipitation, MM = Missing Value Source: NWS Daily Summary

Daily Weather History Graph

Daily Weather History Graph

Search for Another Location

Airport:

Trip Planner

Search our weather history database for the weather conditions in past years. The results will help you decide how hot, cold, wet, or windy it might be!

Date:

Astronomy

Mar. 08, 2014 Rise Set
Actual Time 6:52 AM EST 6:38 PM EST
Civil Twilight 6:28 AM EST 7:02 PM EST
Nautical Twilight 6:00 AM EST 7:29 PM EST
Astronomical Twilight 5:32 AM EST 7:57 PM EST
Moon 11:59 AM EST (3/8) 1:08 AM EST (3/8)
Length of Visible Light 12h 33m
Length of Day
11h 45m
First Quarter, 51% of the Moon is Illuminated
Mar 8
First Quarter
Mar 16
Full
Mar 23
Last Quarter
Mar 30
New
Apr 7
First Quarter

Hourly Weather History & Observations

Time (EST) Temp. Windchill Dew Point Humidity Pressure Visibility Wind Dir Wind Speed Gust Speed Precip Events Conditions
12:15 AM 37.4 °F - 37.4 °F 100% 30.10 in 7.0 mi Calm Calm - N/A   Clear
12:35 AM 39.2 °F - 39.2 °F 100% 30.09 in 3.0 mi Calm Calm - N/A   Clear
12:55 AM 37.4 °F - 37.4 °F 100% 30.09 in 0.2 mi Calm Calm - N/A Fog Fog
1:15 AM 37.4 °F - 37.4 °F 100% 30.08 in 2.5 mi Calm Calm - N/A   Clear
1:35 AM 37.4 °F - 37.4 °F 100% 30.08 in 0.8 mi Calm Calm - N/A   Mist
1:50 AM 37.4 °F - 37.4 °F 100% 30.08 in 2.0 mi Calm Calm - N/A   Clear
2:15 AM 37.4 °F - 37.4 °F 100% 30.08 in 0.8 mi Calm Calm - N/A   Mist
2:40 AM 35.6 °F - 35.6 °F 100% 30.08 in 0.5 mi Calm Calm - N/A Fog Fog
2:55 AM 35.6 °F - 35.6 °F 100% 30.10 in 0.8 mi Calm Calm - N/A   Mist
3:15 AM 35.6 °F - 35.6 °F 100% 30.09 in 2.0 mi Calm Calm - N/A   Clear
3:35 AM 33.8 °F - 33.8 °F 100% 30.10 in 5.0 mi Calm Calm - N/A   Clear
3:55 AM 33.8 °F - 33.8 °F 100% 30.10 in 7.0 mi Calm Calm - N/A   Clear
4:15 AM 33.8 °F - 33.8 °F 100% 30.11 in 4.0 mi Calm Calm - N/A   Clear
4:35 AM 33.8 °F - 33.8 °F 100% 30.11 in 3.0 mi Calm Calm - N/A   Clear
4:55 AM 33.8 °F - 33.8 °F 100% 30.13 in 2.0 mi Calm Calm - N/A   Clear
5:15 AM 33.8 °F - 33.8 °F 100% 30.13 in 4.0 mi Calm Calm - N/A   Clear
5:35 AM 33.8 °F - 33.8 °F 100% 30.13 in 4.0 mi Calm Calm - N/A   Clear
5:55 AM 33.8 °F - 33.8 °F 100% 30.14 in 1.8 mi Calm Calm - N/A   Mist
6:15 AM 33.8 °F - 33.8 °F 100% 30.13 in 0.8 mi Calm Calm - N/A   Mist
6:35 AM 33.8 °F - 33.8 °F 100% 30.14 in 3.0 mi Calm Calm - N/A   Clear
6:55 AM 33.8 °F - 33.8 °F 100% 30.15 in 2.0 mi Calm Calm - N/A   Clear
7:15 AM 32.0 °F - 32.0 °F 100% 30.16 in 4.0 mi Calm Calm - N/A   Clear
7:35 AM 33.8 °F - 33.8 °F 100% 30.16 in 5.0 mi Calm Calm - N/A   Clear
7:55 AM 37.4 °F - 37.4 °F 100% 30.18 in 7.0 mi Calm Calm - N/A   Clear
8:20 AM 42.8 °F - 42.8 °F 100% 30.19 in 10.0 mi Calm Calm - N/A   Clear
8:35 AM 44.6 °F - 44.6 °F 100% 30.19 in 10.0 mi Calm Calm - N/A   Clear
8:50 AM 44.6 °F 43.1 °F 44.6 °F 100% 30.20 in 10.0 mi North 3.5 mph - N/A   Clear
9:15 AM 50.0 °F - 46.4 °F 87% 30.21 in 10.0 mi Calm Calm - N/A   Clear
9:35 AM 51.8 °F - 44.6 °F 76% 30.22 in 10.0 mi Calm Calm - N/A   Clear
9:55 AM 51.8 °F - 44.6 °F 76% 30.22 in 10.0 mi Calm Calm - N/A   Clear
10:15 AM 53.6 °F - 44.6 °F 72% 30.22 in 10.0 mi Calm Calm - N/A   Clear
10:35 AM 55.4 °F - 44.6 °F 67% 30.21 in 10.0 mi Calm Calm - N/A   Clear
10:55 AM 57.2 °F - 44.6 °F 63% 30.21 in 10.0 mi Calm Calm - N/A   Clear
11:15 AM 59.0 °F - 44.6 °F 59% 30.21 in 10.0 mi Calm Calm - N/A   Clear
11:35 AM 60.8 °F - 44.6 °F 55% 30.21 in 10.0 mi Calm Calm - N/A   Clear
11:55 AM 60.8 °F - 44.6 °F 55% 30.21 in 10.0 mi Calm Calm - N/A   Clear
12:15 PM 62.6 °F - 44.6 °F 52% 30.19 in 10.0 mi ENE 3.5 mph - N/A   Clear
12:35 PM 62.6 °F - 44.6 °F 52% 30.18 in 10.0 mi ESE 6.9 mph - N/A   Clear
12:55 PM 64.4 °F - 44.6 °F 49% 30.18 in 10.0 mi Calm Calm - N/A   Clear
1:15 PM 64.4 °F - 44.6 °F 49% 30.17 in 10.0 mi NW 3.5 mph - N/A   Clear
1:35 PM 64.4 °F - 44.6 °F 49% 30.16 in 10.0 mi Calm Calm - N/A   Clear
1:55 PM 64.4 °F - 44.6 °F 49% 30.15 in 10.0 mi WSW 5.8 mph - N/A   Clear
2:15 PM 66.2 °F - 44.6 °F 46% 30.15 in 10.0 mi Calm Calm - N/A   Clear
2:35 PM 66.2 °F - 44.6 °F 46% 30.14 in 10.0 mi Calm Calm - N/A   Clear
2:55 PM 68.0 °F - 42.8 °F 40% 30.13 in 10.0 mi Calm Calm - N/A   Clear
3:15 PM 68.0 °F - 42.8 °F 40% 30.13 in 10.0 mi Calm Calm - N/A   Clear
3:35 PM 68.0 °F - 42.8 °F 40% 30.12 in 10.0 mi Calm Calm - N/A   Clear
3:50 PM 68.0 °F - 42.8 °F 40% 30.11 in 10.0 mi North 3.5 mph - N/A   Clear
4:15 PM 68.0 °F - 42.8 °F 40% 30.11 in 10.0 mi North 3.5 mph - N/A   Clear
4:35 PM 66.2 °F - 48.2 °F 52% 30.11 in 10.0 mi West 9.2 mph - N/A   Clear
4:55 PM 64.4 °F - 48.2 °F 56% 30.12 in 10.0 mi WSW 9.2 mph - N/A   Clear
5:15 PM 64.4 °F - 50.0 °F 59% 30.12 in 10.0 mi WSW 9.2 mph - N/A   Clear
5:35 PM 64.4 °F - 50.0 °F 59% 30.12 in 10.0 mi WSW 6.9 mph - N/A   Clear
5:55 PM 62.6 °F - 50.0 °F 63% 30.13 in 10.0 mi WSW 5.8 mph - N/A   Clear
6:15 PM 60.8 °F - 50.0 °F 68% 30.13 in 10.0 mi WSW 4.6 mph - N/A   Clear
6:35 PM 59.0 °F - 48.2 °F 67% 30.13 in 10.0 mi WSW 6.9 mph - N/A   Clear
6:55 PM 55.4 °F - 48.2 °F 77% 30.14 in 10.0 mi SW 5.8 mph - N/A   Clear
7:15 PM 55.4 °F - 48.2 °F 77% 30.14 in 10.0 mi SW 4.6 mph - N/A   Clear
7:35 PM 53.6 °F - 48.2 °F 82% 30.14 in 10.0 mi Calm Calm - N/A   Clear
7:55 PM 51.8 °F - 48.2 °F 88% 30.15 in 10.0 mi WSW 3.5 mph - N/A   Clear
8:15 PM 50.0 °F - 48.2 °F 94% 30.15 in 10.0 mi SW 4.6 mph - N/A   Clear
8:35 PM 51.8 °F - 50.0 °F 94% 30.17 in 10.0 mi SW 3.5 mph - N/A   Clear
8:50 PM 51.8 °F - 50.0 °F 94% 30.18 in 10.0 mi Calm Calm - N/A   Clear
9:15 PM 51.8 °F - 50.0 °F 94% 30.18 in 10.0 mi Calm Calm - N/A   Clear
9:35 PM 51.8 °F - 50.0 °F 94% 30.19 in 10.0 mi Calm Calm - N/A   Clear
9:55 PM 50.0 °F - 50.0 °F 100% 30.19 in 10.0 mi Calm Calm - N/A   Clear
10:15 PM 50.0 °F - 50.0 °F 100% 30.19 in 10.0 mi Calm Calm - N/A   Clear
10:35 PM 48.2 °F - 48.2 °F 100% 30.20 in 2.0 mi Calm Calm - N/A   Clear
10:55 PM 48.2 °F - 48.2 °F 100% 30.19 in 10.0 mi Calm Calm - N/A   Clear
11:15 PM 50.0 °F - 50.0 °F 100% 30.19 in 1.2 mi Calm Calm - N/A   Mist
11:35 PM 50.0 °F - 50.0 °F 100% 30.19 in 10.0 mi Calm Calm - N/A   Clear
11:55 PM 50.0 °F - 50.0 °F 100% 30.18 in 10.0 mi Calm Calm - N/A   Clear